TimeIST,TemperatureF,Dew PointF,Humidity,Sea Level PressureIn,VisibilityMPH,Wind Direction,Wind SpeedMPH,Gust SpeedMPH,PrecipitationIn,Events,Conditions,WindDirDegrees,DateUTC
12:10 AM,66.2,55.4,68,29.89,2.5,North,3.5,-,N/A,,Haze,350,2012-11-18 18:40:00
12:40 AM,64.4,55.4,73,29.89,2.5,North,3.5,-,N/A,,Haze,350,2012-11-18 19:10:00
1:10 AM,62.6,55.4,77,29.89,2.5,North,3.5,-,N/A,,Haze,350,2012-11-18 19:40:00
1:40 AM,62.6,55.4,77,29.89,2.5,NNE,3.5,-,N/A,,Haze,30,2012-11-18 20:10:00
2:30 AM,61,53,67,29.90,2,Calm,Calm,,,,,,2012-11-18 21:00:00
2:40 AM,60.8,53.6,77,29.86,2.5,NNE,3.5,-,N/A,,Haze,30,2012-11-18 21:10:00
3:40 AM,62.6,53.6,72,29.89,2.5,NNE,2.3,-,N/A,,Haze,30,2012-11-18 22:10:00
4:10 AM,64.4,50.0,59,29.89,2.5,Calm,Calm,-,N/A,,Haze,0,2012-11-18 22:40:00
4:40 AM,64.4,50.0,59,29.89,2.5,Calm,Calm,-,N/A,,Haze,0,2012-11-18 23:10:00
5:30 AM,64,51,53,29.91,2,ESE,3.5,,,,,110,2012-11-19 00:00:00
5:40 AM,64.4,50.0,59,29.89,2.5,Calm,Calm,-,N/A,,Haze,0,2012-11-19 00:10:00
6:10 AM,59.0,51.8,77,29.92,2.2,Calm,Calm,-,N/A,,Haze,0,2012-11-19 00:40:00
7:10 AM,59.0,51.8,77,29.92,1.6,NNE,3.5,-,N/A,,Haze,30,2012-11-19 01:40:00
7:40 AM,59.0,51.8,77,29.95,1.6,NE,4.6,-,N/A,,Haze,50,2012-11-19 02:10:00
8:30 AM,67,54,54,29.99,2,North,3.5,,,,Haze,0,2012-11-19 03:00:00
8:40 AM,66.2,53.6,64,29.98,1.6,North,5.8,-,N/A,,Haze,10,2012-11-19 03:10:00
10:40 AM,80.6,66.2,61,29.98,3.1,East,9.2,-,N/A,,Smoke,80,2012-11-19 05:10:00
11:10 AM,84.2,68.0,58,29.98,3.1,East,5.8,-,N/A,,Smoke,100,2012-11-19 05:40:00
11:30 AM,83,50,21,29.99,2,East,3.5,,,,,90,2012-11-19 06:00:00
11:40 AM,86.0,71.6,62,29.95,3.1,East,5.8,-,N/A,,Smoke,100,2012-11-19 06:10:00
12:10 PM,89.6,75.2,62,29.95,3.1,ESE,5.8,-,N/A,,Smoke,110,2012-11-19 06:40:00
12:40 PM,89.6,75.2,62,29.92,3.1,East,5.8,-,N/A,,Smoke,90,2012-11-19 07:10:00
1:10 PM,91.4,77.0,63,29.92,3.1,East,4.6,-,N/A,,Smoke,80,2012-11-19 07:40:00
1:40 PM,91.4,77.0,63,29.89,3.7,ENE,3.5,-,N/A,,Unknown,70,2012-11-19 08:10:00
2:10 PM,91.4,78.8,66,29.86,3.7,Variable,2.3,-,N/A,,Unknown,0,2012-11-19 08:40:00
2:30 PM,90,50,16,29.91,2,NE,3.5,,,,,50,2012-11-19 09:00:00
2:40 PM,91.4,78.8,66,29.86,3.7,North,3.5,-,N/A,,Unknown,10,2012-11-19 09:10:00
3:10 PM,91.4,77.0,63,29.86,3.7,North,3.5,-,N/A,,Unknown,10,2012-11-19 09:40:00
3:40 PM,91.4,77.0,63,29.83,3.7,NE,3.5,-,N/A,,Unknown,40,2012-11-19 10:10:00
4:10 PM,91.4,77.0,63,29.83,3.7,ENE,4.6,-,N/A,,Unknown,60,2012-11-19 10:40:00
4:40 PM,89.6,75.2,62,29.83,3.7,NE,4.6,-,N/A,,Unknown,50,2012-11-19 11:10:00
5:10 PM,87.8,75.2,66,29.86,3.7,NE,3.5,-,N/A,,Unknown,50,2012-11-19 11:40:00
5:30 PM,85,51,21,29.89,2,NE,3.5,,,,,50,2012-11-19 12:00:00
5:40 PM,84.2,69.8,62,29.86,3.1,ENE,3.5,-,N/A,,Smoke,60,2012-11-19 12:10:00
6:10 PM,80.6,60.8,51,29.86,2.5,NE,3.5,-,N/A,,Smoke,40,2012-11-19 12:40:00
7:10 PM,75.2,62.6,65,29.89,2.5,Calm,Calm,-,N/A,,Smoke,0,2012-11-19 13:40:00
7:40 PM,73.4,60.8,65,29.89,2.5,Calm,Calm,-,N/A,,Smoke,0,2012-11-19 14:10:00
8:10 PM,71.6,59.0,64,29.92,2.5,Calm,Calm,-,N/A,,Haze,0,2012-11-19 14:40:00
8:30 PM,69,57,56,29.95,2,Calm,Calm,,,,,,2012-11-19 15:00:00
8:40 PM,69.8,57.2,64,29.92,2.5,Calm,Calm,-,N/A,,Haze,0,2012-11-19 15:10:00
9:10 PM,69.8,57.2,64,29.92,2.5,Calm,Calm,-,N/A,,Haze,0,2012-11-19 15:40:00
9:40 PM,69.8,55.4,60,29.95,2.5,Calm,Calm,-,N/A,,Haze,0,2012-11-19 16:10:00
10:10 PM,68.0,55.4,64,29.95,2.5,Calm,Calm,-,N/A,,Haze,0,2012-11-19 16:40:00
10:40 PM,68.0,60.8,78,29.95,2.5,Calm,Calm,-,N/A,,Haze,0,2012-11-19 17:10:00
11:10 PM,66.2,59.0,78,29.95,2.5,Calm,Calm,-,N/A,,Haze,0,2012-11-19 17:40:00
11:30 PM,66,56,61,29.96,2,Calm,Calm,,,,Haze,,2012-11-19 18:00:00
11:40 PM,66.2,57.2,73,29.95,2.5,Calm,Calm,-,N/A,,Haze,0,2012-11-19 18:10:00